"startDT [UTC]","vpos","CH4 [ppm]","stdev(CH4) [ppm]","CO2 [ppm]","stdev(CO2) [ppm]","H2O [ppm]","stdev(H2O)","p_LGR [torr]","T_LGR [C]","mt1_LGR [us]","mt2_LGR [us]","T_ECpre [C]","T_EC1 [C]","T_EC2 [C]","p_inlet [hPa]","p_in [hPa]","p_out [hPa]","T_inlet [C]","RH_inlet [%]","dwpt_inlet [C]","T_vent [C]","RH_vent [%]","dwpt_vent [C]","flow_vent [l min-1]","flow_inlet [l min-1]","dwpt_sample [C]","T_room [C]"
2013-02-19 00:00:00,0.0,1.9392,0.0011,408.69,0.25,-1.0,0.0,138.28,21.31,24.61,36.30,0.04,-272.74,-272.73,-43,551,-927,14.8,0.6,-46.2,14.9,0.6,-45.0,5.73,2.52,-37.8,20.8
2013-02-19 00:01:00,0.0,1.9390,0.0008,408.64,0.27,-1.0,0.0,138.28,21.31,24.61,36.30,0.04,-272.73,-272.73,-42,552,-927,14.8,0.6,-46.4,14.9,0.6,-45.0,5.73,2.30,-37.8,20.8
2013-02-19 00:02:00,0.0,1.9385,0.0009,408.61,0.26,-1.0,0.0,138.28,21.30,24.61,36.31,0.04,-272.74,-272.73,-43,551,-927,14.7,0.6,-46.3,14.9,0.6,-45.0,5.73,2.53,-37.9,20.8
2013-02-19 00:03:00,0.0,1.9394,0.0011,408.66,0.30,-1.0,0.0,138.28,21.30,24.61,36.30,0.04,-272.73,-272.74,-42,552,-927,14.7,0.6,-46.3,14.9,0.6,-45.0,5.73,2.36,-37.9,20.7
2013-02-19 00:04:00,0.0,1.9397,0.0009,408.36,0.28,-1.0,0.0,138.28,21.29,24.61,36.30,0.04,-272.74,-272.73,-43,551,-927,14.7,0.6,-46.4,14.9,0.6,-45.0,5.73,2.43,-37.9,20.7
2013-02-19 00:05:00,0.0,1.9397,0.0008,408.25,0.27,-1.0,0.0,138.28,21.29,24.61,36.30,0.04,-272.74,-272.73,-42,552,-927,14.7,0.6,-46.3,14.9,0.6,-45.0,5.73,2.48,-37.9,20.7
2013-02-19 00:06:00,0.0,1.9393,0.0008,408.19,0.26,-1.0,0.0,138.28,21.28,24.61,36.30,0.04,-272.74,-272.74,-43,551,-926,14.7,0.6,-46.2,14.9,0.6,-45.0,5.73,2.32,-37.9,20.7
2013-02-19 00:07:00,0.0,1.9395,0.0008,408.15,0.25,-1.0,0.0,138.28,21.28,24.61,36.30,0.04,-272.73,-272.73,-42,552,-927,14.7,0.6,-46.3,14.9,0.6,-45.0,5.73,2.54,-37.9,20.7
2013-02-19 00:08:00,0.0,1.9397,0.0009,408.18,0.25,-1.0,0.0,138.28,21.27,24.61,36.30,0.04,-272.73,-272.73,-43,551,-927,14.7,0.6,-46.2,14.9,0.6,-45.0,5.73,2.32,-37.9,20.7
2013-02-19 00:09:00,0.0,1.9395,0.0009,408.15,0.23,-1.0,0.0,138.28,21.27,24.61,36.30,0.04,-272.74,-272.74,-42,551,-927,14.7,0.6,-46.5,14.9,0.6,-45.0,5.73,2.48,-37.9,20.7
2013-02-19 00:10:00,0.0,1.9395,0.0009,408.24,0.28,-1.0,0.0,138.28,21.26,24.61,36.29,0.04,-272.73,-272.73,-42,551,-927,14.7,0.5,-46.7,14.9,0.6,-45.5,5.73,2.41,-37.9,20.7
2013-02-19 00:11:00,0.0,1.9400,0.0010,408.38,0.30,-1.0,0.0,138.28,21.26,24.61,36.30,0.04,-272.74,-272.73,-42,551,-927,14.7,0.5,-46.7,14.9,0.6,-45.5,5.73,2.39,-37.9,20.7
2013-02-19 00:12:00,0.0,1.9399,0.0009,408.56,0.29,-1.0,0.0,138.28,21.25,24.61,36.30,0.04,-272.73,-272.74,-42,551,-927,14.7,0.5,-46.7,14.9,0.6,-45.4,5.73,2.50,-37.9,20.7
2013-02-19 00:13:00,0.0,1.9391,0.0009,408.81,0.29,-1.0,0.0,138.28,21.25,24.61,36.30,0.04,-272.74,-272.73,-42,551,-927,14.7,0.5,-46.7,14.9,0.6,-45.5,5.73,2.31,-37.9,20.7
2013-02-19 00:14:00,0.0,1.9385,0.0009,408.95,0.25,-1.0,0.0,138.28,21.24,24.61,36.31,0.04,-272.74,-272.73,-42,551,-927,14.7,0.5,-46.7,14.8,0.6,-45.5,5.73,2.54,-37.9,20.7
2013-02-19 00:15:00,0.0,1.9379,0.0008,409.03,0.30,-1.0,0.0,138.28,21.23,24.61,36.30,0.04,-272.74,-272.73,-42,551,-927,14.7,0.5,-46.8,14.9,0.6,-45.4,5.73,2.32,-37.9,20.7
2013-02-19 00:16:00,0.0,1.9380,0.0008,409.07,0.27,-1.0,0.0,138.28,21.23,24.61,36.30,0.04,-272.74,-272.74,-42,551,-927,14.7,0.5,-46.7,14.9,0.6,-45.3,5.73,2.47,-37.9,20.7
2013-02-19 00:17:00,0.0,1.9379,0.0010,408.98,0.25,-1.0,0.0,138.28,21.22,24.61,36.31,0.04,-272.74,-272.73,-42,551,-926,14.7,0.6,-46.3,14.9,0.6,-45.0,5.73,2.43,-37.9,20.7
2013-02-19 00:18:00,0.0,1.9373,0.0008,409.20,0.26,-1.0,0.0,138.28,21.21,24.61,36.30,0.04,-272.73,-272.73,-42,551,-927,14.7,0.6,-46.3,14.8,0.7,-44.8,5.73,2.36,-38.0,20.7
2013-02-19 00:19:00,0.0,1.9374,0.0010,409.30,0.27,-1.0,0.0,138.28,21.21,24.61,36.31,0.04,-272.74,-272.73,-42,551,-926,14.7,0.6,-45.8,14.8,0.7,-44.6,5.73,2.52,-38.0,20.7
2013-02-19 00:20:00,0.0,1.9370,0.0008,409.27,0.26,-1.0,0.0,138.28,21.20,24.61,36.30,0.04,-272.73,-272.73,-42,551,-927,14.6,0.6,-45.5,14.8,0.7,-44.4,5.73,2.30,-38.0,20.7
2013-02-19 00:21:00,0.0,1.9370,0.0008,408.61,0.27,-1.0,0.0,138.28,21.20,24.61,36.30,0.04,-272.73,-272.73,-42,551,-926,14.6,0.6,-45.5,14.8,0.7,-44.1,5.73,2.54,-38.0,20.7
2013-02-19 00:22:00,0.0,1.9379,0.0008,408.80,0.26,-1.0,0.0,138.28,21.19,24.61,36.30,0.04,-272.73,-272.74,-42,551,-927,14.6,0.7,-45.0,14.8,0.7,-44.0,5.73,2.33,-38.0,20.7
2013-02-19 00:23:00,0.0,1.9376,0.0009,408.66,0.25,-1.0,0.0,138.28,21.19,24.61,36.30,0.04,-272.73,-272.74,-42,551,-926,14.6,0.6,-45.0,14.8,0.7,-44.0,5.73,2.46,-38.0,20.7
2013-02-19 00:24:00,0.0,1.9382,0.0009,408.71,0.31,-1.0,0.0,138.28,21.18,24.61,36.30,0.04,-272.73,-272.74,-42,551,-927,14.6,0.6,-45.1,14.8,0.7,-44.0,5.73,2.44,-38.0,20.7
2013-02-19 00:25:00,0.0,1.9384,0.0008,408.52,0.31,-1.0,0.0,138.28,21.18,24.61,36.30,0.04,-272.73,-272.74,-42,551,-927,14.6,0.6,-45.1,14.8,0.7,-43.9,5.73,2.35,-38.0,20.7
2013-02-19 00:26:00,0.0,1.9389,0.0009,408.56,0.27,-1.0,0.0,138.28,21.17,24.61,36.30,0.04,-272.74,-272.74,-42,551,-926,14.6,0.6,-45.1,14.8,0.7,-44.0,5.73,2.52,-37.9,20.7
2013-02-19 00:27:00,0.0,1.9384,0.0007,408.40,0.26,-1.0,0.0,138.28,21.17,24.61,36.30,0.04,-272.74,-272.74,-42,551,-927,14.6,0.6,-45.1,14.8,0.7,-44.0,5.73,2.30,-38.0,20.7
2013-02-19 00:28:00,0.0,1.9388,0.0009,408.50,0.23,-1.0,0.0,138.28,21.16,24.61,36.30,0.04,-272.73,-272.74,-42,551,-926,14.6,0.6,-45.0,14.8,0.7,-44.0,5.73,2.54,-37.9,20.7
2013-02-19 00:29:00,0.0,1.9385,0.0008,408.36,0.27,-1.0,0.0,138.28,21.16,24.61,36.30,0.04,-272.73,-272.74,-42,551,-927,14.6,0.6,-45.1,14.8,0.7,-44.0,5.73,2.33,-38.0,20.7
2013-02-19 00:30:00,0.0,1.9379,0.0010,408.28,0.24,-1.0,0.0,138.28,21.15,24.61,36.30,0.04,-272.73,-272.73,-42,551,-926,14.6,0.6,-45.2,14.8,0.7,-44.0,5.73,2.46,-38.0,20.7
2013-02-19 00:31:00,0.0,1.9384,0.0009,408.32,0.29,-1.0,0.0,138.28,21.15,24.61,36.30,0.21,-271.54,-272.70,-42,551,-927,14.6,0.6,-45.5,14.8,0.7,-44.0,5.42,2.54,-41.2,20.6
2013-02-19 00:32:00,0.0,1.9386,0.0007,408.41,0.26,-1.0,0.0,138.28,21.14,24.61,36.30,0.04,-272.73,-272.74,-42,551,-926,14.6,0.6,-45.5,14.8,0.7,-44.1,5.73,2.35,-38.0,20.6
2013-02-19 00:33:00,0.0,1.9382,0.0009,408.58,0.22,-1.0,0.0,138.28,21.14,24.61,36.30,0.04,-272.73,-272.74,-42,551,-926,14.6,0.6,-45.5,14.8,0.7,-44.3,5.73,2.52,-38.0,20.6
2013-02-19 00:34:00,0.0,1.9381,0.0012,408.56,0.24,-1.0,0.0,138.28,21.14,24.61,36.31,0.04,-272.73,-272.72,-42,551,-927,14.6,0.6,-45.5,14.8,0.7,-44.4,5.73,2.30,-38.0,20.6
2013-02-19 00:35:00,0.0,1.9382,0.0008,408.52,0.28,-1.0,0.0,138.28,21.13,24.61,36.30,0.04,-272.73,-272.73,-42,551,-926,14.6,0.6,-45.5,14.8,0.7,-44.4,5.73,2.53,-38.0,20.6
2013-02-19 00:36:00,0.0,1.9382,0.0009,408.44,0.26,-1.0,0.0,138.28,21.13,24.61,36.31,0.04,-272.73,-272.74,-42,551,-927,14.6,0.6,-45.5,14.8,0.7,-44.3,5.73,2.34,-38.0,20.6
2013-02-19 00:37:00,0.0,1.9383,0.0008,408.48,0.23,-1.0,0.0,138.28,21.12,24.61,36.30,0.04,-272.74,-272.73,-42,551,-926,14.6,0.6,-45.4,14.7,0.7,-44.4,5.73,2.45,-38.0,20.7
2013-02-19 00:38:00,0.0,1.9379,0.0008,408.44,0.24,-1.0,0.0,138.28,21.11,24.61,36.30,0.04,-272.73,-272.73,-42,551,-927,14.6,0.6,-45.5,14.7,0.7,-44.3,5.73,2.45,-38.0,20.6
2013-02-19 00:39:00,0.0,1.9381,0.0006,408.37,0.23,-1.0,0.0,138.28,21.11,24.61,36.30,0.04,-272.74,-272.73,-42,551,-927,14.5,0.6,-45.4,14.7,0.7,-44.0,5.73,2.34,-38.0,20.6
2013-02-19 00:40:00,0.0,1.9384,0.0007,408.40,0.21,-1.0,0.0,138.28,21.10,24.61,36.30,0.04,-272.74,-272.73,-42,551,-926,14.5,0.6,-45.4,14.7,0.7,-43.9,5.73,2.54,-38.1,20.6
2013-02-19 00:41:00,0.0,1.9380,0.0009,408.51,0.27,-1.0,0.0,138.28,21.10,24.61,36.30,0.04,-272.73,-272.74,-42,551,-927,14.5,0.6,-45.1,14.7,0.7,-44.1,5.73,2.30,-38.0,20.6
2013-02-19 00:42:00,0.0,1.9381,0.0008,408.58,0.25,-1.0,0.0,138.28,21.09,24.61,36.30,0.04,-272.73,-272.73,-42,551,-926,14.5,0.6,-45.1,14.7,0.7,-44.0,5.73,2.52,-38.1,20.6
2013-02-19 00:43:00,0.0,1.9380,0.0008,408.60,0.26,-1.0,0.0,138.28,21.09,24.61,36.30,0.04,-272.74,-272.74,-42,551,-927,14.5,0.6,-45.1,14.7,0.7,-44.0,5.73,2.35,-38.1,20.6
2013-02-19 00:44:00,0.0,1.9376,0.0007,408.48,0.29,-1.0,0.0,138.28,21.08,24.61,36.31,0.04,-272.73,-272.73,-42,551,-927,14.5,0.6,-45.1,14.7,0.7,-44.0,5.73,2.44,-38.1,20.6
2013-02-19 00:45:00,0.0,1.9379,0.0008,408.54,0.25,-1.0,0.0,138.28,21.07,24.61,36.30,0.04,-272.73,-272.73,-42,551,-926,14.5,0.7,-44.8,14.7,0.7,-44.0,5.73,2.45,-38.1,20.6
2013-02-19 00:46:00,0.0,1.9377,0.0009,408.57,0.23,-1.0,0.0,138.28,21.07,24.61,36.30,0.04,-272.74,-272.74,-42,550,-927,14.5,0.7,-44.7,14.7,0.7,-43.9,5.73,2.34,-38.1,20.6
2013-02-19 00:47:00,0.0,1.9381,0.0008,408.48,0.29,-1.0,0.0,138.28,21.07,24.61,36.31,0.04,-272.73,-272.73,-42,551,-926,14.5,0.7,-44.7,14.7,0.7,-43.7,5.73,2.53,-38.1,20.6
2013-02-19 00:48:00,0.0,1.9385,0.0011,408.50,0.31,-1.0,0.0,138.28,21.06,24.61,36.30,0.04,-272.74,-272.73,-42,551,-926,14.5,0.7,-44.8,14.7,0.7,-43.7,5.73,2.31,-38.1,20.6
2013-02-19 00:49:00,0.0,1.9380,0.0007,408.51,0.28,-1.0,0.0,138.28,21.06,24.61,36.31,0.04,-272.73,-272.74,-42,551,-927,14.5,0.7,-44.7,14.7,0.7,-43.7,5.73,2.53,-38.1,20.6
2013-02-19 00:50:00,0.0,1.9381,0.0009,408.57,0.23,-1.0,0.0,138.28,21.05,24.61,36.31,0.04,-272.73,-272.74,-42,551,-926,14.5,0.7,-44.8,14.7,0.8,-43.6,5.73,2.34,-38.1,20.6
2013-02-19 00:51:00,0.0,1.9382,0.0008,408.69,0.19,-1.0,0.0,138.28,21.05,24.61,36.30,0.04,-272.73,-272.73,-42,550,-927,14.5,0.7,-44.8,14.7,0.7,-43.7,5.73,2.45,-38.1,20.6
2013-02-19 00:52:00,0.0,1.9385,0.0010,408.72,0.30,-1.0,0.0,138.28,21.04,24.61,36.30,0.04,-272.74,-272.73,-42,550,-926,14.5,0.7,-44.7,14.7,0.7,-43.7,5.73,2.44,-38.1,20.6
2013-02-19 00:53:00,0.0,1.9375,0.0009,408.67,0.27,-1.0,0.0,138.28,21.04,24.61,36.30,0.04,-272.74,-272.74,-42,550,-926,14.5,0.7,-44.8,14.6,0.8,-43.7,5.73,2.34,-38.1,20.6
2013-02-19 00:54:00,0.0,1.9380,0.0009,408.67,0.24,-1.0,0.0,138.28,21.03,24.61,36.31,0.04,-272.73,-272.73,-42,550,-927,14.5,0.7,-44.8,14.7,0.8,-43.7,5.73,2.53,-38.1,20.6
2013-02-19 00:55:00,0.0,1.9380,0.0007,408.60,0.24,-1.0,0.0,138.28,21.03,24.61,36.31,0.04,-272.74,-272.73,-42,550,-926,14.4,0.7,-44.8,14.6,0.8,-43.7,5.73,2.30,-38.1,20.6
2013-02-19 00:56:00,0.0,1.9381,0.0007,408.50,0.26,-1.0,0.0,138.28,21.02,24.61,36.30,0.04,-272.74,-272.73,-42,550,-926,14.4,0.7,-44.5,14.6,0.8,-43.4,5.73,2.53,-38.2,20.6
2013-02-19 00:57:00,0.0,1.9382,0.0009,408.51,0.23,-1.0,0.0,138.28,21.01,24.61,36.30,0.04,-272.74,-272.73,-42,550,-927,14.4,0.7,-44.4,14.6,0.8,-43.3,5.73,2.34,-38.2,20.5
2013-02-19 00:58:00,0.0,1.9383,0.0008,408.40,0.22,-1.0,0.0,138.28,21.01,24.60,36.31,0.04,-272.73,-272.74,-42,550,-926,14.4,0.7,-44.4,14.6,0.8,-43.4,5.73,2.46,-38.1,20.5
2013-02-19 00:59:00,0.0,1.9384,0.0008,408.50,0.26,-1.0,0.0,138.28,21.00,24.61,36.31,0.04,-272.73,-272.73,-42,550,-926,14.4,0.7,-44.4,14.6,0.8,-43.1,5.73,2.44,-38.1,20.6
2013-02-19 01:00:00,0.0,1.9381,0.0009,408.52,0.26,-1.0,0.0,138.28,21.00,24.61,36.30,0.04,-272.73,-272.74,-42,550,-926,14.4,0.7,-44.1,14.6,0.8,-43.1,5.73,2.35,-38.1,20.6
2013-02-19 01:01:00,0.0,1.9378,0.0008,408.67,0.24,-1.0,0.0,138.28,21.00,24.61,36.30,0.04,-272.73,-272.73,-42,550,-926,14.4,0.7,-44.1,14.6,0.8,-43.1,5.73,2.53,-38.1,20.5
2013-02-19 01:02:00,0.0,1.9384,0.0008,408.62,0.26,-1.0,0.0,138.28,20.99,24.61,36.30,0.04,-272.73,-272.73,-42,550,-927,14.4,0.7,-44.2,14.6,0.8,-43.1,5.73,2.30,-38.1,20.5
2013-02-19 01:03:00,0.0,1.9382,0.0008,408.52,0.24,-1.0,0.0,138.28,20.99,24.61,36.31,0.04,-272.74,-272.74,-42,550,-926,14.4,0.7,-44.4,14.6,0.8,-43.1,5.73,2.52,-38.2,20.5
2013-02-19 01:04:00,0.0,1.9382,0.0008,408.60,0.26,-1.0,0.0,138.28,20.98,24.61,36.31,0.04,-272.73,-272.74,-42,550,-926,14.4,0.7,-44.4,14.6,0.8,-43.1,5.73,2.36,-38.1,20.5
2013-02-19 01:05:00,0.0,1.9386,0.0007,408.67,0.22,-1.0,0.0,138.28,20.98,24.61,36.30,0.04,-272.74,-272.73,-42,550,-926,14.4,0.7,-44.5,14.6,0.8,-43.1,5.73,2.43,-38.2,20.5
2013-02-19 01:06:00,0.0,1.9388,0.0009,408.53,0.29,-1.0,0.0,138.28,20.97,24.61,36.30,0.04,-272.74,-272.74,-42,550,-926,14.4,0.7,-44.4,14.6,0.8,-43.1,5.73,2.46,-38.2,20.5
2013-02-19 01:07:00,0.0,1.9386,0.0010,408.46,0.25,-1.0,0.0,138.28,20.97,24.61,36.30,0.04,-272.74,-272.74,-42,550,-927,14.4,0.7,-44.0,14.6,0.8,-43.1,5.73,2.33,-38.2,20.5
2013-02-19 01:08:00,0.0,1.9390,0.0010,408.29,0.23,-1.0,0.0,138.28,20.96,24.61,36.31,0.04,-272.73,-272.73,-42,550,-926,14.4,0.7,-44.2,14.6,0.8,-43.1,5.73,2.54,-38.2,20.5
2013-02-19 01:09:00,0.0,1.9390,0.0008,408.42,0.25,-1.0,0.0,138.28,20.96,24.61,36.30,0.04,-272.74,-272.73,-42,550,-926,14.4,0.7,-44.1,14.6,0.8,-43.1,5.73,2.31,-38.2,20.5
2013-02-19 01:10:00,0.0,1.9389,0.0007,408.49,0.22,-1.0,0.0,138.28,20.95,24.61,36.30,0.04,-272.74,-272.73,-42,550,-926,14.4,0.7,-44.1,14.6,0.8,-42.8,5.73,2.49,-38.2,20.5
2013-02-19 01:11:00,0.0,1.9394,0.0009,408.38,0.27,-1.0,0.0,138.28,20.95,24.60,36.31,0.04,-272.73,-272.73,-42,550,-926,14.4,0.8,-43.8,14.6,0.8,-42.8,5.73,2.40,-38.2,20.5
2013-02-19 01:12:00,0.0,1.9390,0.0009,408.41,0.31,-1.0,0.0,138.28,20.94,24.61,36.31,0.04,-272.73,-272.73,-42,550,-927,14.4,0.8,-43.7,14.6,0.9,-42.5,5.73,2.39,-38.2,20.5
2013-02-19 01:13:00,0.0,1.9388,0.0010,408.48,0.29,-1.0,0.0,138.28,20.94,24.61,36.30,0.04,-272.74,-272.74,-42,550,-926,14.4,0.8,-43.4,14.6,0.9,-42.5,5.73,2.50,-38.2,20.5
2013-02-19 01:14:00,0.0,1.9388,0.0008,408.47,0.25,-1.0,0.0,138.28,20.94,24.61,36.30,0.04,-272.73,-272.73,-42,550,-926,14.4,0.8,-43.5,14.6,0.9,-42.5,5.73,2.31,-38.2,20.5
2013-02-19 01:15:00,0.0,1.9383,0.0008,408.45,0.26,-1.0,0.0,138.28,20.93,24.61,36.30,0.04,-272.73,-272.73,-42,550,-926,14.4,0.8,-43.3,14.6,0.9,-42.2,5.73,2.53,-38.2,20.5
2013-02-19 01:16:00,0.0,1.9386,0.0008,408.43,0.28,-1.0,0.0,138.28,20.93,24.61,36.31,0.04,-272.74,-272.74,-42,550,-926,14.4,0.8,-43.1,14.6,0.9,-42.2,5.73,2.34,-38.2,20.5
2013-02-19 01:17:00,0.0,1.9390,0.0007,408.41,0.25,-1.0,0.0,138.28,20.93,24.61,36.31,0.04,-272.73,-272.74,-42,550,-926,14.4,0.8,-43.2,14.6,0.9,-42.2,5.73,2.45,-38.2,20.5
2013-02-19 01:18:00,0.0,1.9387,0.0008,408.41,0.26,-1.0,0.0,138.28,20.92,24.61,36.31,0.04,-272.73,-272.74,-42,550,-926,14.4,0.8,-43.1,14.6,0.9,-41.9,5.73,2.45,-38.2,20.5
2013-02-19 01:19:00,0.0,1.9388,0.0007,408.54,0.28,-1.0,0.0,138.28,20.92,24.61,36.30,0.04,-272.73,-272.74,-42,550,-926,14.4,0.8,-42.7,14.6,0.9,-41.8,5.73,2.34,-38.2,20.5
2013-02-19 01:20:00,0.0,1.9386,0.0008,408.48,0.24,-1.0,0.0,138.28,20.91,24.61,36.31,0.04,-272.73,-272.74,-42,550,-926,14.4,0.8,-42.9,14.6,0.9,-41.9,5.73,2.53,-38.2,20.5
2013-02-19 01:21:00,0.0,1.9388,0.0009,408.59,0.24,-1.0,0.0,138.28,20.91,24.61,36.31,0.04,-272.74,-272.74,-42,550,-927,14.4,0.9,-42.3,14.6,1.0,-41.4,5.73,2.31,-38.2,20.5
2013-02-19 01:22:00,0.0,1.9390,0.0008,408.54,0.25,-1.0,0.0,138.28,20.90,24.61,36.30,0.04,-272.73,-272.73,-42,550,-926,14.4,0.9,-42.5,14.6,1.0,-41.5,5.73,2.49,-38.2,20.5
2013-02-19 01:23:00,0.0,1.9391,0.0009,408.44,0.26,-1.0,0.0,138.28,20.90,24.61,36.31,0.04,-272.74,-272.73,-43,550,-926,14.4,0.9,-42.5,14.6,0.9,-41.6,5.73,2.41,-38.2,20.5
2013-02-19 01:24:00,0.0,1.9388,0.0009,408.53,0.28,-1.0,0.0,138.28,20.89,24.61,36.30,0.04,-272.73,-272.74,-42,550,-927,14.4,0.9,-42.5,14.6,0.9,-41.6,5.73,2.37,-38.1,20.5
2013-02-19 01:25:00,0.0,1.9392,0.0008,408.52,0.27,-1.0,0.0,138.28,20.89,24.61,36.31,0.04,-272.73,-272.73,-43,550,-926,14.4,0.9,-42.3,14.6,1.0,-41.4,5.73,2.52,-38.1,20.5
2013-02-19 01:26:00,0.0,1.9390,0.0007,408.44,0.24,-1.0,0.0,138.28,20.89,24.61,36.31,0.04,-272.74,-272.73,-42,550,-926,14.4,0.9,-42.5,14.6,1.0,-41.5,5.73,2.30,-38.1,20.5
2013-02-19 01:27:00,0.0,1.9392,0.0009,408.54,0.27,-1.0,0.0,138.28,20.88,24.61,36.30,0.04,-272.73,-272.74,-43,550,-926,14.4,0.9,-42.5,14.6,0.9,-41.6,5.73,2.52,-38.1,20.5
2013-02-19 01:28:00,0.0,1.9393,0.0009,408.42,0.27,-1.0,0.0,138.28,20.87,24.61,36.31,0.04,-272.73,-272.73,-42,550,-926,14.4,0.9,-42.5,14.6,0.9,-41.7,5.73,2.37,-38.1,20.5
2013-02-19 01:29:00,0.0,1.9395,0.0007,408.45,0.26,-1.0,0.0,138.28,20.87,24.61,36.30,0.04,-272.73,-272.73,-42,550,-926,14.4,0.9,-42.5,14.6,0.9,-41.6,5.73,2.40,-38.1,20.5
2013-02-19 01:30:00,0.0,1.9395,0.0008,408.59,0.31,-1.0,0.0,138.28,20.86,24.61,36.31,0.04,-272.74,-272.74,-42,550,-926,14.4,0.9,-42.5,14.6,0.9,-41.6,5.73,2.50,-38.1,20.5
2013-02-19 01:31:00,0.0,1.9394,0.0008,408.44,0.31,-1.0,0.0,138.28,20.86,24.61,36.31,0.04,-272.73,-272.73,-42,550,-926,14.4,0.8,-42.8,14.6,0.9,-41.6,5.73,2.31,-38.1,20.5
2013-02-19 01:32:00,0.0,1.9394,0.0008,408.53,0.27,-1.0,0.0,138.28,20.86,24.61,36.31,0.04,-272.73,-272.74,-42,550,-926,14.4,0.8,-42.8,14.6,0.9,-41.6,5.73,2.53,-38.1,20.5
2013-02-19 01:33:00,0.0,1.9398,0.0009,408.51,0.23,-1.0,0.0,138.28,20.86,24.61,36.31,0.04,-272.74,-272.74,-42,550,-926,14.4,0.8,-42.8,14.6,0.9,-41.6,5.73,2.35,-38.1,20.5
2013-02-19 01:34:00,0.0,1.9395,0.0008,408.52,0.26,-1.0,0.0,138.28,20.85,24.61,36.31,0.04,-272.74,-272.74,-42,550,-926,14.4,0.8,-42.8,14.6,0.9,-41.6,5.73,2.43,-38.1,20.5
2013-02-19 01:35:00,0.0,1.9397,0.0008,408.59,0.20,-1.0,0.0,138.28,20.85,24.61,36.30,0.04,-272.73,-272.73,-42,550,-926,14.4,0.9,-42.6,14.6,0.9,-41.6,5.73,2.47,-38.1,20.5
2013-02-19 01:36:00,0.0,1.9399,0.0008,408.48,0.24,-1.0,0.0,138.28,20.85,24.61,36.31,0.04,-272.73,-272.73,-42,550,-926,14.4,0.9,-42.5,14.6,0.9,-41.6,5.73,2.33,-38.1,20.5
2013-02-19 01:37:00,0.0,1.9402,0.0010,408.37,0.21,-1.0,0.0,138.28,20.85,24.61,36.31,0.04,-272.74,-272.73,-42,550,-926,14.4,0.9,-42.5,14.6,0.9,-41.6,5.73,2.53,-38.1,20.5
2013-02-19 01:38:00,0.0,1.9401,0.0009,408.46,0.27,-1.0,0.0,138.28,20.84,24.61,36.31,0.04,-272.73,-272.74,-42,550,-926,14.4,0.9,-42.5,14.6,0.9,-41.7,5.73,2.31,-38.1,20.5
2013-02-19 01:39:00,0.0,1.9401,0.0009,408.46,0.28,-1.0,0.0,138.28,20.84,24.61,36.31,0.04,-272.73,-272.73,-42,550,-926,14.4,0.9,-42.5,14.6,0.9,-41.6,5.73,2.49,-38.1,20.5
2013-02-19 01:40:00,0.0,1.9407,0.0008,408.37,0.26,-1.0,0.0,138.28,20.83,24.61,36.32,0.04,-272.74,-272.74,-43,550,-927,14.4,0.8,-42.7,14.6,0.9,-41.6,5.73,2.42,-38.1,20.5
2013-02-19 01:41:00,0.0,1.9404,0.0010,408.41,0.22,-1.0,0.0,138.28,20.83,24.61,36.31,0.04,-272.73,-272.74,-42,550,-926,14.4,0.8,-42.8,14.6,0.9,-41.6,5.73,2.35,-38.1,20.5
2013-02-19 01:42:00,0.0,1.9405,0.0008,408.46,0.25,-1.0,0.0,138.28,20.83,24.61,36.31,0.04,-272.73,-272.73,-43,550,-926,14.4,0.8,-42.8,14.6,0.9,-41.6,5.73,2.53,-38.1,20.5
2013-02-19 01:43:00,0.0,1.9409,0.0010,408.48,0.27,-1.0,0.0,138.28,20.82,24.61,36.31,0.04,-272.73,-272.74,-42,550,-926,14.4,0.8,-42.8,14.6,0.9,-41.7,5.73,2.31,-38.1,20.5
2013-02-19 01:44:00,0.0,1.9414,0.0008,408.31,0.28,-1.0,0.0,138.28,20.82,24.61,36.31,0.04,-272.73,-272.74,-43,550,-926,14.4,0.8,-42.9,14.6,0.9,-41.6,5.73,2.52,-38.1,20.5
2013-02-19 01:45:00,0.0,1.9415,0.0009,408.30,0.30,-1.0,0.0,138.28,20.82,24.61,36.31,0.04,-272.73,-272.73,-42,550,-926,14.4,0.8,-42.8,14.6,0.9,-41.6,5.73,2.36,-38.1,20.5
2013-02-19 01:46:00,0.0,1.9413,0.0007,408.37,0.28,-1.0,0.0,138.28,20.82,24.61,36.30,0.04,-272.73,-272.74,-42,550,-926,14.4,0.8,-42.8,14.5,0.9,-41.8,5.73,2.42,-38.1,20.5
2013-02-19 01:47:00,0.0,1.9421,0.0011,408.38,0.32,-1.0,0.0,138.28,20.81,24.61,36.31,0.04,-272.74,-272.74,-42,550,-926,14.4,0.8,-42.9,14.6,0.9,-41.9,5.73,2.48,-38.1,20.5
2013-02-19 01:48:00,0.0,1.9418,0.0011,408.21,0.28,-1.0,0.0,138.28,20.81,24.61,36.31,0.04,-272.73,-272.73,-42,550,-926,14.4,0.8,-42.9,14.5,0.9,-41.9,5.73,2.32,-38.1,20.5
2013-02-19 01:49:00,0.0,1.9417,0.0007,408.33,0.25,-1.0,0.0,138.28,20.80,24.61,36.31,0.04,-272.73,-272.73,-42,550,-926,14.4,0.8,-42.8,14.5,0.9,-41.7,5.73,2.53,-38.1,20.5
2013-02-19 01:50:00,0.0,1.9410,0.0008,408.43,0.27,-1.0,0.0,138.28,20.80,24.61,36.31,0.04,-272.74,-272.74,-42,550,-926,14.3,0.8,-42.9,14.5,0.9,-41.9,5.73,2.34,-38.1,20.5
2013-02-19 01:51:00,0.0,1.9413,0.0007,408.32,0.30,-1.0,0.0,138.28,20.80,24.61,36.31,0.04,-272.74,-272.74,-42,550,-926,14.4,0.8,-43.1,14.5,0.9,-41.9,5.73,2.45,-38.1,20.5
2013-02-19 01:52:00,0.0,1.9412,0.0009,408.37,0.33,-1.0,0.0,138.29,20.79,24.61,36.31,0.04,-272.73,-272.73,-42,550,-925,14.4,0.8,-43.2,14.5,0.9,-42.0,5.73,2.46,-38.1,20.5
2013-02-19 01:53:00,0.0,1.9408,0.0010,408.40,0.26,-1.0,0.0,138.28,20.79,24.61,36.31,0.04,-272.73,-272.73,-43,550,-926,14.4,0.8,-43.2,14.5,0.9,-42.2,5.73,2.33,-38.1,20.5
2013-02-19 01:54:00,0.0,1.9411,0.0008,408.37,0.26,-1.0,0.0,138.28,20.78,24.61,36.31,0.04,-272.74,-272.74,-42,550,-927,14.4,0.8,-43.1,14.5,0.9,-42.2,5.73,2.53,-38.1,20.5
2013-02-19 01:55:00,0.0,1.9408,0.0008,408.42,0.25,-1.0,0.0,138.29,20.78,24.61,36.31,0.04,-272.73,-272.74,-43,550,-926,14.4,0.8,-43.1,14.5,0.9,-42.2,5.73,2.32,-38.1,20.5
2013-02-19 01:56:00,0.0,1.9399,0.0009,408.46,0.25,-1.0,0.0,138.29,20.77,24.61,36.31,0.04,-272.73,-272.74,-42,550,-925,14.4,0.8,-43.2,14.5,0.9,-42.2,5.73,2.48,-38.1,20.5
2013-02-19 01:57:00,0.0,1.9400,0.0008,408.56,0.27,-1.0,0.0,138.28,20.77,24.61,36.31,0.04,-272.73,-272.74,-42,550,-926,14.4,0.8,-43.1,14.5,0.9,-42.2,5.73,2.43,-38.1,20.4
2013-02-19 01:58:00,0.0,1.9397,0.0008,408.49,0.23,-1.0,0.0,138.28,20.76,24.61,36.31,0.04,-272.73,-272.74,-42,550,-926,14.4,0.8,-43.2,14.5,0.9,-42.3,5.73,2.35,-38.1,20.4
2013-02-19 01:59:00,0.0,1.9393,0.0007,408.57,0.21,-1.0,0.0,138.29,20.76,24.61,36.32,0.04,-272.73,-272.73,-43,550,-926,14.4,0.8,-43.2,14.5,0.9,-42.2,5.73,2.53,-38.1,20.4
2013-02-19 02:00:00,0.0,1.9394,0.0009,408.77,0.26,-1.0,0.0,138.28,20.76,24.61,36.31,0.04,-272.73,-272.73,-42,550,-926,14.4,0.8,-43.1,14.5,0.9,-42.2,5.73,2.31,-38.1,20.5
2013-02-19 02:01:00,0.0,1.9394,0.0008,408.67,0.19,-1.0,0.0,138.28,20.76,24.61,36.31,0.04,-272.74,-272.73,-43,550,-926,14.4,0.8,-43.2,14.5,0.9,-42.2,5.73,2.50,-38.1,20.5
2013-02-19 02:02:00,0.0,1.9392,0.0010,408.72,0.23,-1.0,0.0,138.28,20.76,24.61,36.31,0.04,-272.73,-272.73,-42,550,-926,14.4,0.8,-43.1,14.6,0.9,-42.2,5.73,2.40,-38.1,20.4
2013-02-19 02:03:00,0.0,1.9390,0.0008,408.72,0.26,-1.0,0.0,138.28,20.75,24.61,36.31,0.04,-272.73,-272.74,-43,550,-926,14.4,0.8,-43.1,14.5,0.9,-42.2,5.73,2.38,-38.1,20.4
2013-02-19 02:04:00,0.0,1.9387,0.0009,408.63,0.31,-1.0,0.0,138.28,20.75,24.61,36.32,0.04,-272.74,-272.74,-42,550,-926,14.3,0.8,-43.2,14.5,0.9,-42.2,5.73,2.52,-38.1,20.4
2013-02-19 02:05:00,0.0,1.9385,0.0009,408.71,0.24,-1.0,0.0,138.28,20.74,24.61,36.31,0.04,-272.73,-272.73,-42,550,-926,14.4,0.8,-43.2,14.5,0.9,-42.2,5.73,2.31,-38.1,20.4
2013-02-19 02:06:00,0.0,1.9384,0.0009,408.83,0.30,-1.0,0.0,138.28,20.74,24.61,36.31,0.04,-272.73,-272.73,-43,550,-926,14.4,0.8,-43.1,14.5,0.9,-42.2,5.73,2.50,-38.1,20.4
2013-02-19 02:07:00,0.0,1.9386,0.0009,408.81,0.23,-1.0,0.0,138.28,20.74,24.61,36.31,0.04,-272.73,-272.73,-42,550,-926,14.4,0.8,-43.2,14.6,0.9,-42.1,5.73,2.39,-38.1,20.4
2013-02-19 02:08:00,0.0,1.9388,0.0008,408.79,0.26,-1.0,0.0,138.28,20.73,24.61,36.30,0.04,-272.73,-272.73,-43,550,-926,14.4,0.8,-43.2,14.6,0.9,-42.2,5.73,2.38,-38.1,20.4
2013-02-19 02:09:00,0.0,1.9389,0.0008,408.68,0.24,-1.0,0.0,138.28,20.73,24.61,36.31,0.04,-272.73,-272.73,-42,550,-925,14.4,0.8,-43.1,14.6,0.9,-42.2,5.73,2.52,-38.1,20.4
2013-02-19 02:10:00,0.0,1.9388,0.0009,408.65,0.22,-1.0,0.0,138.28,20.73,24.61,36.32,0.04,-272.74,-272.74,-43,550,-926,14.4,0.8,-43.4,14.5,0.9,-42.3,5.73,2.31,-38.1,20.4
2013-02-19 02:11:00,0.0,1.9393,0.0008,408.83,0.23,-1.0,0.0,138.28,20.72,24.61,36.31,0.04,-272.73,-272.74,-42,550,-926,14.4,0.8,-43.5,14.6,0.9,-42.5,5.73,2.50,-38.1,20.4
2013-02-19 02:12:00,0.0,1.9389,0.0008,408.74,0.21,-1.0,0.0,138.28,20.72,24.61,36.31,0.04,-272.73,-272.73,-43,550,-925,14.4,0.8,-43.8,14.6,0.8,-42.7,5.73,2.39,-38.1,20.4
2013-02-19 02:13:00,0.0,1.9390,0.0008,408.76,0.27,-1.0,0.0,138.28,20.72,24.61,36.31,0.04,-272.74,-272.74,-42,550,-925,14.4,0.7,-44.0,14.6,0.8,-42.8,5.73,2.38,-38.1,20.4
2013-02-19 02:14:00,0.0,1.9389,0.0007,408.78,0.27,-1.0,0.0,138.28,20.71,24.61,36.31,0.04,-272.74,-272.74,-43,550,-926,14.4,0.7,-44.2,14.6,0.8,-43.1,5.73,2.51,-38.1,20.4
2013-02-19 02:15:00,0.0,1.9386,0.0009,408.94,0.27,-1.0,0.0,138.28,20.71,24.61,36.31,0.04,-272.73,-272.73,-42,550,-926,14.4,0.7,-44.2,14.6,0.8,-43.2,5.73,2.31,-38.0,20.4
2013-02-19 02:16:00,0.0,1.9389,0.0007,408.81,0.23,-1.0,0.0,138.28,20.71,24.61,36.31,0.04,-272.73,-272.73,-43,550,-925,14.4,0.7,-44.4,14.5,0.8,-43.1,5.73,2.52,-38.0,20.4
2013-02-19 02:17:00,0.0,1.9388,0.0009,408.78,0.20,-1.0,0.0,138.28,20.70,24.61,36.31,0.04,-272.74,-272.73,-42,550,-925,14.4,0.7,-44.5,14.5,0.8,-43.1,5.73,2.36,-38.0,20.4
2013-02-19 02:18:00,0.0,1.9388,0.0009,408.80,0.25,-1.0,0.0,138.28,20.70,24.61,36.31,0.04,-272.74,-272.74,-42,550,-926,14.4,0.7,-44.2,14.6,0.8,-43.1,5.73,2.41,-38.0,20.4